Location: ?ejeti?ky
(50.4060°N, 14.9016°E)
Time: 19:11:28
(UTC+00:00)

ISS - Visible Passes

Search period start: 03 December 2021 00:00
Search period end: 13 December 2021 00:00
Orbit: 417 x 423 km, 51.6° (Epoch: 03 December)

Date Brightness Start Highest point End Pass type
(mag) Time Alt. Az. Time Alt. Az. Time Alt. Az.
03 Dec -3.8 16:11:00 10° WNW 16:14:26 87° NNE 16:17:09 15° ESE visible
03 Dec -1.6 17:48:01 10° W 17:50:09 26° WSW 17:50:09 26° WSW visible
04 Dec -2.7 17:00:39 10° W 17:03:54 42° SSW 17:05:09 29° SSE visible
05 Dec -3.2 16:13:21 10° WNW 16:16:43 58° SSW 16:20:04 10° SE visible
05 Dec -0.9 17:51:03 10° WSW 17:53:01 15° SW 17:53:21 14° SW visible
06 Dec -1.3 17:03:19 10° W 17:05:58 21° SW 17:08:36 10° SSE visible
07 Dec -1.8 16:15:51 10° W 16:18:52 30° SSW 16:21:52 10° SSE visible
09 Dec -0.6 16:18:54 10° WSW 16:20:50 14° SW 16:22:45 10° S visible
